Temp
15 15 15 15 15 15 15 15 15 15 16 16 17 17 18 19 21 22 20 23 24 24 24 24 25 25 24 23 24 24 21 20 24 25 26 28 25 23 22 22 22 22 20 18 16
14 14 15 15 15 15 15 15 15 15 15 16 16 17 18 18 19 19 23 23 23 23 23 23 22 22 21 22 23 21 19 23 24 25 26 26 24 23 22 21 20 19 19 17 17
14 14 14 14 14 14 14 14 14 15 15 15 15 16 17 19 17 22 24 23 23 23 23 22 22 22 23 23 23 23 22 23 26 26 25 24 23 23 21 21 20 18 18 17 16
14 14 14 14 14 14 14 14 14 14 14 14 14 15 17 18 20 23 23 23 23 23 22 23 22 22 23 23 23 24 24 26 25 26 25 25 22 21 21 21 20 19 18 17 15
13 13 13 13 13 13 13 13 14 14 14 14 14 14 16 16 18 22 22 23 23 23 22 22 21 23 22 22 23 25 25 25 25 25 26 24 21 20 19 18 19 18 17 15 14
13 13 13 13 13 13 13 13 13 14 14 14 14 13 14 15 20 21 22 22 23 23 22 22 22 23 22 22 23 24 24 24 25 24 25 20 20 21 20 18 18 17 15 14 13
12 12 12 12 12 13 13 13 13 14 14 13 13 12 13 14 20 21 20 20 21 23 22 23 23 23 21 21 23 24 24 23 24 24 24 21 21 20 19 19 17 15 14 13 13
9 10 11 12 12 12 12 12 12 13 13 13 13 12 14 17 19 18 19 19 21 22 23 23 24 22 22 21 21 23 22 21 22 23 23 23 21 19 18 18 15 14 14 13 12
9 9 10 10 11 10 11 11 12 11 12 13 12 12 14 17 18 21 20 19 22 22 23 23 23 21 21 20 19 19 19 19 21 22 23 22 21 18 17 18 15 14 13 12 11
9 9 9 10 10 11 11 11 11 11 12 11 12 13 14 18 20 21 22 22 21 21 21 21 19 18 17 17 18 19 19 19 21 23 21 19 19 19 18 18 16 13 13 12 11
8 8 9 9 10 10 12 11 11 11 10 14 15 15 18 19 21 22 22 22 22 20 19 19 17 17 19 18 20 20 20 20 21 23 22 19 18 19 18 17 14 14 13 12 11
7 8 9 9 9 10 10 10 10 9 10 13 13 14 15 16 17 19 21 20 19 18 19 18 17 19 20 19 19 20 19 20 22 23 23 19 18 18 18 18 17 15 13 11 11
7 8 8 9 9 9 10 10 10 9 10 13 13 15 16 16 15 17 19 20 19 19 18 18 19 21 20 20 20 20 20 21 21 22 22 20 19 19 19 19 17 16 14 13 12
8 8 8 9 8 9 9 10 10 10 11 13 13 15 16 18 16 18 20 20 19 19 19 19 20 20 20 20 20 19 21 22 22 20 18 19 17 18 19 19 18 16 13 12 12
8 8 8 8 9 8 9 10 9 9 12 17 16 18 18 17 19 18 19 19 19 19 19 19 20 20 20 20 21 20 22 21 22 20 19 20 18 17 20 18 18 16 14 12 12
8 8 7 7 8 10 9 9 9 10 12 16 19 17 16 16 18 20 19 20 20 20 20 19 21 21 21 22 22 21 21 19 18 18 17 18 19 21 19 20 18 15 14 13 11
8 8 7 8 8 9 8 8 9 11 16 17 18 19 17 16 17 18 19 18 18 17 17 19 19 20 21 20 22 21 19 16 16 16 16 19 20 20 19 19 17 15 13 12 10
7 8 8 8 9 8 8 9 10 13 15 18 18 19 18 18 17 18 18 18 18 19 18 18 17 19 21 19 19 18 18 16 15 15 16 19 17 18 16 17 18 15 13 11 10
7 7 7 8 8 8 7 9 10 13 15 16 17 16 17 18 18 18 17 18 18 19 17 16 15 20 21 21 21 19 17 18 16 16 15 15 18 19 16 15 14 13 12 10 10
6 6 7 8 7 7 7 8 10 13 16 17 15 15 15 18 17 17 17 18 18 18 19 18 16 17 20 20 20 20 19 17 14 13 15 16 17 15 16 14 14 13 11 11 9
4 6 7 7 7 6 7 8 10 12 13 15 15 15 15 16 17 15 16 17 18 18 18 17 15 16 17 18 18 18 17 17 16 14 15 14 13 14 13 15 14 13 13 11 9
5 5 6 7 6 6 7 8 11 12 12 14 16 15 15 15 16 16 15 16 16 17 18 17 15 15 16 17 19 19 19 17 13 13 15 13 11 15 13 13 15 15 16 12 10
4 4 6 6 7 6 8 8 9 11 11 14 14 15 14 14 15 15 16 16 15 16 16 15 11 12 15 16 17 17 17 17 15 14 14 10 10 14 14 14 16 15 13 11 7
2 4 4 5 6 7 7 8 9 10 10 11 13 14 13 13 13 13 14 14 13 14 14 14 12 11 13 15 14 16 17 17 15 13 13 11 10 15 14 15 16 16 11 8 6
0 3 5 6 6 5 8 9 9 9 11 12 10 11 11 11 12 13 13 13 14 13 14 14 13 11 12 13 15 16 16 16 14 14 14 13 13 13 14 15 15 15 11 8 6
-1 2 4 5 7 6 6 7 9 10 10 10 9 10 12 11 12 12 12 12 13 13 14 13 11 11 10 14 15 14 14 15 13 14 14 13 12 14 15 15 13 13 10 8 6
3 3 2 5 6 6 7 7 9 10 10 11 11 11 10 12 12 12 12 11 11 11 11 11 9 10 11 14 13 12 11 13 13 14 14 13 14 14 15 15 14 11 10 9 7
Height
834 834 835 835 833 832 832 830 828 828 825 822 820 816 811 807 800 795 792 790 790 789 788 784 782 780 777 778 776 776 806 816 800 790 781 765 775 779 777 782 783 785 790 799 811
832 832 832 833 831 831 829 829 827 825 824 822 819 815 811 806 800 792 790 789 789 789 787 785 783 781 784 781 778 787 810 799 785 778 773 769 775 781 789 788 797 796 801 806 812
831 830 831 830 829 828 829 827 826 825 822 821 818 814 810 806 801 790 789 788 789 788 787 787 784 784 786 782 780 781 796 785 778 772 768 774 781 779 789 799 792 798 804 809 812
826 827 828 828 828 827 826 825 824 823 822 819 817 814 810 807 812 790 789 788 788 788 786 785 784 787 789 790 779 786 774 771 773 769 771 775 780 789 787 790 794 797 802 808 813
823 824 825 825 826 825 824 823 821 822 821 818 817 814 810 809 798 790 788 786 786 786 785 785 788 786 792 786 780 777 774 768 768 769 769 772 785 788 795 793 797 801 805 809 813
820 820 821 821 823 823 821 820 820 819 818 817 815 815 813 812 789 789 786 786 785 783 785 785 783 780 785 785 786 774 774 773 771 773 769 785 792 785 798 796 799 803 809 811 814
815 815 817 817 819 819 818 817 816 817 817 816 814 813 812 798 787 787 785 783 783 782 783 783 781 782 783 787 776 773 779 778 773 773 776 780 797 794 790 794 802 807 811 814 817
810 811 812 813 814 814 814 813 813 814 814 813 812 811 801 785 783 780 777 775 778 778 780 780 779 779 782 780 780 782 782 795 774 772 772 776 801 791 788 791 804 808 811 814 817
809 812 810 812 810 812 811 809 809 809 810 811 812 811 795 783 779 769 770 771 773 774 776 777 778 782 782 793 801 794 805 799 786 769 772 779 791 788 790 792 802 805 809 812 818
807 810 810 811 810 809 809 807 805 806 807 809 809 813 792 778 772 767 765 767 770 773 777 778 783 791 796 802 808 802 801 796 790 768 773 783 787 784 788 789 794 802 805 809 814
806 806 807 808 808 810 807 806 805 807 805 794 792 785 776 772 769 764 762 765 768 774 785 780 795 796 788 790 783 786 792 794 778 763 769 780 785 783 784 791 798 799 802 807 811
803 804 806 807 809 806 807 809 810 813 804 793 788 783 777 776 775 766 764 769 773 779 778 787 791 774 778 780 785 786 792 791 775 763 766 779 784 778 779 779 777 786 798 803 807
801 802 803 805 806 805 806 806 809 809 807 782 777 765 766 769 765 764 762 761 766 773 775 779 772 765 774 776 781 781 783 780 781 768 767 777 786 781 776 774 779 787 790 796 797
800 799 800 801 807 801 803 802 806 810 803 775 769 752 748 754 753 750 750 756 760 766 767 769 763 767 772 773 771 782 765 767 771 783 799 777 805 780 769 771 774 779 789 792 798
798 797 797 798 799 801 799 798 805 809 800 754 751 740 739 749 737 737 737 750 753 754 760 764 759 763 767 765 759 768 757 763 766 776 785 783 793 781 762 772 768 774 782 790 794
795 796 798 798 799 798 797 800 801 804 787 753 737 743 747 746 739 728 738 742 743 750 749 754 746 751 752 748 749 750 760 770 776 783 798 783 782 749 766 756 762 773 778 784 792
792 794 796 795 796 795 796 798 800 785 755 744 738 734 738 745 743 736 741 749 754 761 759 754 750 744 746 757 749 754 768 799 800 802 793 771 775 756 756 750 754 763 773 783 790
790 790 791 792 793 795 795 793 784 758 747 730 733 730 737 736 740 733 739 747 743 744 751 757 760 748 737 746 756 761 764 787 798 801 790 768 777 763 757 744 741 759 769 783 791
786 786 787 787 790 795 799 783 765 748 741 738 736 742 737 732 732 735 737 735 735 736 754 759 762 733 727 728 739 756 766 755 777 781 793 782 765 756 759 759 761 769 777 786 792
782 781 779 783 789 792 792 777 761 745 735 733 740 739 744 732 732 734 735 726 733 734 734 741 755 744 734 730 732 737 748 769 788 801 790 774 767 772 764 769 770 775 780 785 791
780 775 771 778 785 787 777 768 753 746 745 739 738 740 738 737 729 735 735 728 725 725 731 741 750 751 743 739 744 745 753 759 765 778 778 786 780 758 762 759 765 769 773 778 785
776 768 766 770 772 772 771 762 751 745 743 742 733 736 737 736 735 734 738 732 727 726 730 732 743 748 740 736 730 731 734 746 775 781 770 775 786 750 757 758 758 760 762 772 781
772 767 764 765 755 759 756 753 751 744 743 739 740 737 731 735 737 731 727 723 726 729 732 735 761 762 744 742 737 737 738 740 756 765 765 796 794 754 755 758 755 758 765 772 781
775 766 761 757 749 749 751 747 746 737 745 745 741 733 734 737 734 736 731 731 730 728 732 731 751 763 755 743 744 740 735 737 747 765 769 775 779 754 756 755 755 755 764 772 777
771 760 750 740 744 745 741 734 739 740 735 737 744 738 738 743 735 734 733 734 733 735 730 736 748 756 752 750 740 734 733 738 745 748 755 758 755 754 753 750 750 752 761 772 778
766 760 752 740 736 736 738 738 733 725 730 733 742 737 736 737 732 734 739 736 732 734 731 733 749 753 763 745 740 740 738 737 744 743 744 752 752 746 743 744 750 751 758 766 771
752 752 755 740 734 731 728 726 716 714 726 724 728 735 741 728 729 731 732 736 736 737 740 740 751 755 753 741 742 747 743 738 741 739 741 749 738 737 740 738 739 746 752 757 763
Wind_Speed
13 13 13 13 12 12 13 13 14 17 19 21 24 26 28 31 32 28 5 3 2 6 11 18 14 15 9 3 3 4 2 2 4 3 4 3 6 4 6 7 5 2 7 21 29
16 15 15 14 14 13 13 14 15 16 19 22 24 26 28 29 27 17 4 3 2 8 14 11 7 12 5 4 5 4 4 5 5 3 0 4 6 7 5 10 8 15 21 30 24
18 17 17 16 15 14 15 14 15 17 18 22 24 26 27 23 6 4 2 1 6 12 12 12 9 1 3 2 3 3 6 5 3 3 4 4 5 3 15 4 6 21 17 15 20
19 19 19 17 17 16 15 15 16 17 19 20 23 25 23 7 6 3 10 9 9 12 11 7 4 5 3 4 3 3 6 5 5 2 4 4 4 5 4 6 13 15 16 14 12
20 20 20 19 18 17 16 15 16 17 18 19 21 22 11 4 9 23 17 8 9 10 6 4 6 2 3 5 7 1 3 2 5 6 4 6 6 7 7 11 14 16 15 14 13
20 20 20 20 19 19 18 17 17 18 18 19 19 18 4 6 11 10 10 10 12 9 12 7 5 3 4 4 1 3 1 2 3 4 5 8 7 7 4 9 12 14 11 11 13
21 20 22 20 21 21 21 19 19 19 20 18 17 12 4 16 20 30 30 28 23 16 5 8 7 2 3 7 4 3 3 3 4 5 5 11 1 6 13 11 14 13 12 12 12
6 1 10 18 20 21 22 22 23 22 22 17 15 7 8 22 24 32 30 26 19 20 17 13 7 1 2 5 7 3 2 1 6 7 6 9 7 6 13 18 12 12 12 12 8
6 6 6 7 6 7 12 14 20 16 18 14 9 4 10 14 14 21 19 16 14 14 18 14 1 3 3 2 4 3 4 6 7 7 5 5 4 8 8 15 14 13 13 12 9
10 9 7 6 8 9 13 12 11 13 10 8 9 4 9 7 9 11 12 12 7 4 4 4 3 1 2 3 8 5 4 5 6 4 10 7 6 14 13 18 18 15 15 14 13
5 7 8 5 1 5 9 3 2 2 6 7 6 6 8 4 9 4 14 7 5 3 8 4 4 12 13 8 4 3 5 8 4 4 4 7 7 16 16 10 11 15 15 13 12
6 9 9 8 7 2 2 2 1 1 8 15 21 20 31 18 6 9 6 6 6 10 6 5 11 14 9 8 7 7 12 10 5 3 2 7 8 14 16 19 22 21 16 16 11
8 10 16 15 11 6 5 3 1 5 5 7 11 15 15 20 17 18 5 8 7 11 10 15 9 13 14 13 10 11 7 5 5 5 5 4 5 6 9 11 9 13 16 17 20
13 14 17 20 9 10 6 13 9 4 4 5 7 8 10 11 10 32 23 7 8 12 14 11 15 17 13 15 9 9 6 6 3 3 4 6 5 6 7 19 16 18 18 17 15
12 13 5 17 6 7 1 15 13 5 4 3 5 4 6 14 4 14 42 8 14 10 9 7 5 12 16 15 11 9 7 5 4 2 2 3 3 6 6 8 14 17 20 16 15
11 11 10 14 10 10 4 14 12 3 8 5 5 7 8 13 4 4 15 5 5 9 13 9 7 3 6 4 10 6 5 5 3 3 6 6 5 16 6 8 6 11 18 17 13
13 13 15 12 4 9 13 4 3 5 7 6 7 7 6 7 7 3 5 18 11 11 17 13 19 18 13 9 3 2 7 0 2 1 8 8 7 16 5 7 13 21 19 16 14
15 15 18 20 19 14 8 5 6 11 10 4 4 3 10 6 7 6 8 9 21 14 0 11 9 17 10 17 8 7 8 6 7 4 4 4 5 5 6 9 13 17 18 15 14
14 16 19 24 22 16 2 6 7 5 5 4 1 2 4 7 6 11 11 14 8 18 9 4 4 5 13 22 11 3 6 7 6 2 2 4 1 3 6 11 13 14 15 14 14
11 11 19 25 21 9 4 6 7 7 4 1 8 5 3 5 9 8 9 8 11 7 6 6 8 3 6 2 12 19 6 2 4 5 6 4 5 4 4 8 11 13 14 13 10
7 4 7 24 18 5 6 9 9 10 10 3 4 6 8 1 1 2 1 4 8 9 17 12 6 3 4 2 5 3 5 3 4 4 3 1 5 5 9 11 13 13 13 14 14
5 4 8 27 9 4 13 8 11 13 8 7 4 7 4 3 3 5 10 4 4 2 4 10 6 11 18 11 7 9 14 8 4 5 10 3 5 2 10 10 11 13 15 10 13
3 2 10 19 10 9 13 19 9 13 7 3 6 8 1 3 3 4 9 5 6 3 3 1 3 3 2 2 3 6 4 6 14 1 4 5 5 2 5 8 11 11 6 10 13
1 3 3 8 7 17 17 22 19 14 9 5 6 3 2 4 4 4 2 1 5 4 2 5 5 5 5 3 5 4 5 6 7 5 5 6 4 4 6 9 6 7 9 11 13
3 4 4 4 11 9 18 14 25 18 17 8 6 14 6 4 2 4 2 1 2 2 6 5 3 5 9 15 17 4 4 8 6 6 8 7 10 8 9 10 9 8 8 11 13
4 4 3 3 5 14 18 16 22 26 15 24 12 7 11 7 7 4 2 2 3 3 2 1 5 4 4 7 6 5 12 4 1 2 3 6 8 7 8 6 8 11 12 13 14
13 6 1 4 5 9 12 19 26 25 9 22 18 18 15 14 5 5 4 2 3 5 3 3 5 5 7 15 2 5 7 5 4 5 6 7 8 6 7 8 7 11 13 13 14
Wind_Direction
274 275 277 280 283 291 299 307 315 322 326 329 332 334 336 336 330 328 273 250 233 321 331 339 333 339 339 312 229 106 55 275 261 284 264 106 98 7 25 85 45 52 118 124 142
270 271 273 275 280 285 290 300 308 316 322 326 330 332 335 336 327 303 314 215 290 329 334 345 318 354 339 309 329 112 128 236 234 252 317 90 87 131 92 98 73 86 102 128 134
269 270 271 273 276 280 287 292 303 310 319 327 332 334 337 334 318 266 71 12 325 322 317 305 292 246 278 354 258 188 199 204 262 266 66 73 66 96 126 88 141 137 134 116 109
262 266 269 270 272 275 280 289 298 307 317 326 332 335 340 341 298 333 314 312 311 309 308 308 338 332 285 294 285 226 219 178 210 266 74 73 81 69 31 123 129 121 121 120 112
264 264 265 267 268 269 272 281 293 301 310 322 328 337 350 2 253 292 299 288 309 307 282 294 317 290 280 300 322 240 348 80 175 157 130 92 127 128 105 111 119 120 113 112 106
260 262 263 264 265 266 269 278 286 296 304 313 323 332 333 275 266 277 296 293 293 294 298 297 257 221 254 271 219 299 273 316 193 227 174 113 142 95 212 130 112 107 107 104 107
245 248 251 255 263 267 271 273 278 286 292 305 314 329 261 252 271 285 279 273 268 284 271 298 330 32 3 308 310 280 267 340 249 203 222 113 248 176 162 139 128 119 115 110 114
44 351 251 247 254 258 262 267 274 276 285 301 307 309 256 276 285 277 267 273 265 259 263 278 301 352 187 291 335 321 58 293 260 181 234 144 218 206 166 144 145 137 132 128 124
326 349 36 9 359 315 278 266 262 267 279 291 294 214 266 290 268 273 254 238 264 247 245 256 86 216 334 193 344 335 233 223 300 204 153 157 198 184 164 149 154 152 146 139 124
275 286 299 313 352 349 320 295 284 284 274 252 239 286 256 245 265 260 255 226 212 272 270 173 85 235 354 129 218 217 232 254 248 254 181 165 191 167 174 165 167 162 155 146 147
266 251 268 281 288 345 18 329 19 239 244 206 198 225 285 308 309 285 226 178 177 185 219 185 153 224 224 217 213 247 298 278 261 236 117 183 159 180 187 171 168 173 162 155 157
244 222 228 209 212 202 3 79 107 99 289 259 264 260 267 279 284 287 314 168 177 223 143 212 220 224 228 237 242 250 250 271 280 261 128 180 208 199 187 198 190 174 164 162 156
264 237 226 214 207 211 196 194 207 6 270 241 222 236 232 214 229 232 199 208 189 217 203 217 227 221 227 246 237 242 196 226 193 312 351 100 287 174 222 221 190 182 169 168 165
269 271 237 219 189 181 201 224 241 165 274 267 225 250 201 217 254 220 226 202 191 214 214 240 234 244 242 236 199 228 212 220 275 127 226 167 261 271 224 207 189 179 174 173 166
258 249 233 164 153 180 249 221 198 208 309 204 215 192 176 175 164 202 214 212 208 189 185 214 222 215 231 240 199 219 207 201 185 226 117 252 265 237 231 208 201 180 176 172 166
247 242 218 211 233 215 209 178 152 196 227 273 195 179 142 213 269 18 184 185 197 217 238 228 271 210 213 223 236 184 100 46 63 109 261 194 177 272 206 222 164 171 169 164 153
238 234 221 212 236 248 246 177 166 195 216 229 208 186 184 170 232 203 169 202 205 209 232 247 245 265 264 279 192 114 119 50 309 190 238 197 222 249 293 266 175 168 164 154 148
239 234 234 229 229 265 181 214 198 202 208 76 22 235 191 160 246 205 199 211 221 226 114 216 243 217 219 218 195 187 166 167 202 202 247 222 231 253 311 278 168 151 139 142 149
250 240 237 234 239 248 276 239 210 196 194 235 158 31 239 217 201 193 215 210 195 204 220 166 262 308 212 219 192 223 193 180 145 348 55 233 207 307 29 73 109 127 138 150 158
261 230 232 231 232 205 215 240 243 230 292 22 205 173 237 222 189 183 184 209 207 221 215 226 260 263 302 89 215 210 176 126 83 209 221 233 199 207 186 127 130 145 163 169 161
267 242 241 217 206 215 214 237 254 248 289 257 199 212 229 290 280 97 281 316 185 223 218 206 160 220 21 219 189 177 143 129 164 176 181 200 255 213 173 158 159 170 178 175 174
254 230 194 185 199 191 226 203 243 263 300 263 203 250 241 169 243 209 207 223 140 156 187 203 183 228 233 225 284 229 212 159 153 196 226 184 257 183 172 174 165 180 194 177 175
244 270 210 205 210 206 223 233 249 242 214 257 216 232 310 144 205 233 216 245 123 133 217 238 53 295 69 290 263 195 184 144 196 102 212 150 262 185 159 185 195 186 145 159 157
5 253 240 200 262 202 212 226 222 231 251 275 254 254 199 217 178 286 355 13 355 109 212 102 143 172 241 236 173 181 183 171 155 179 199 213 217 223 195 191 192 200 179 172 172
179 250 233 215 218 228 204 231 229 229 215 201 245 240 213 219 119 211 265 206 169 203 152 119 151 159 227 273 271 292 249 189 172 178 188 220 213 191 207 208 189 212 144 152 165
171 209 257 291 251 203 202 211 235 236 214 219 229 268 228 207 182 161 170 246 236 14 74 103 181 103 278 222 264 200 218 176 132 156 208 173 252 182 224 203 168 174 167 177 183
215 241 257 281 240 214 214 227 218 232 226 225 218 232 241 228 182 233 189 182 196 171 142 121 135 151 240 249 124 316 196 177 199 205 168 202 222 173 216 215 190 185 184 178 181